Orbital Elements at Epoch 2459200.5 (2020-Dec-17.0) TDB
Reference: JPL 12 (heliocentric ecliptic J2000)
Element | Value | Uncertainty (1-sigma) | Units |
e | .3179625930428697 | 3.6164e-07 | |
a | 2.576912275536694 | 9.1985e-08 | au |
q | 1.757550566363045 | 9.9351e-07 | au |
i | .8474999451131456 | 3.2278e-06 | deg |
node | 249.9278152894216 | 0.00058705 | deg |
peri | 95.21501232050652 | 0.00059132 | deg |
M | 89.68419358098681 | 4.9849e-05 | deg |
tp | 2458824.089885309344 (2019-Dec-06.58988531) | 0.00019325 | TDB |
period | 1510.942295157839 4.14 | 8.0902e-05 2.215e-07 | d yr |
n | .2382619118901512 | 1.2757e-08 | deg/d |
Q | 3.396273984710344 | 1.2123e-07 | au |
|
| | Orbit Determination Parameters
Additional Information
|